When you browse on this site, cookies collect data to enhance your experience and personalize the content and advertising you see.
Visit our Privacy Policy to learn more. By continuing to use the site, you agree to this use of cookies and data.
  • In Czech Republic
  • List of Countries
  • For 7 days
  • Water Temperature
  • Satellite Maps
  • Weather Map
  • Weather Widgets
  • user-avatar
    Login

    Hourly Weather Newcastle

    Today, 23 May, Thursday

    Time Temperature Precipitation Wind Pressure Humidity
    00:00 +16°C° 0 mm 1 mps 769 mmHg 95%
    01:00 +16°C° 0 mm 2 mps 769 mmHg 96%
    02:00 +16°C° 0.1 mm 2 mps 769 mmHg 97%
    03:00 +16°C° 0.1 mm 2 mps 769 mmHg 97%
    04:00 +15°C° 0.1 mm 2 mps 769 mmHg 98%
    05:00 +15°C° 0.1 mm 2 mps 769 mmHg 98%
    06:00 +15°C° 0.1 mm 2 mps 769 mmHg 98%
    07:00 +15°C° 0.1 mm 2 mps 769 mmHg 99%
    08:00 +17°C° 0 mm 2 mps 769 mmHg 91%
    09:00 +19°C° 0 mm 2 mps 769 mmHg 84%
    10:00 +20°C° 0 mm 2 mps 769 mmHg 77%
    11:00 +23°C° 0.1 mm 2 mps 769 mmHg 71%
    12:00 +24°C° 0.1 mm 1 mps 768 mmHg 64%
    13:00 +26°C° 0.1 mm 1 mps 768 mmHg 58%
    14:00 +25°C° 0.1 mm 1 mps 768 mmHg 63%
    15:00 +24°C° 0.1 mm 1 mps 767 mmHg 68%
    16:00 +23°C° 0.1 mm 1 mps 767 mmHg 73%
    17:00 +21°C° 0 mm 1 mps 767 mmHg 80%
    18:00 +19°C° 0 mm 1 mps 767 mmHg 86%
    19:00 +16°C° 0 mm 0 mps 768 mmHg 92%
    20:00 +16°C° 0 mm 1 mps 768 mmHg 93%
    21:00 +16°C° 0 mm 1 mps 768 mmHg 93%
    22:00 +16°C° 0 mm 2 mps 768 mmHg 94%
    23:00 +15°C° 0 mm 2 mps 768 mmHg 94%

    Tomorrow, 24 May, Friday

    Time Temperature Precipitation Wind Pressure Humidity
    00:00 +15°C° 0 mm 2 mps 767 mmHg 94%
    01:00 +15°C° 0 mm 2 mps 767 mmHg 94%
    02:00 +14°C° 0 mm 2 mps 767 mmHg 94%
    03:00 +14°C° 0 mm 2 mps 767 mmHg 94%
    04:00 +14°C° 0 mm 2 mps 766 mmHg 94%
    05:00 +14°C° 0 mm 2 mps 766 mmHg 93%
    06:00 +14°C° 0 mm 2 mps 767 mmHg 92%
    07:00 +14°C° 0 mm 2 mps 767 mmHg 92%
    08:00 +16°C° 0 mm 2 mps 767 mmHg 83%
    09:00 +18°C° 0 mm 2 mps 767 mmHg 73%
    10:00 +20°C° 0 mm 2 mps 767 mmHg 64%
    11:00 +23°C° 0 mm 2 mps 766 mmHg 56%
    12:00 +24°C° 0 mm 2 mps 765 mmHg 48%
    13:00 +26°C° 0 mm 1 mps 765 mmHg 40%
    14:00 +25°C° 0 mm 1 mps 764 mmHg 43%
    15:00 +24°C° 0 mm 1 mps 764 mmHg 46%
    16:00 +23°C° 0 mm 1 mps 764 mmHg 49%
    17:00 +20°C° 0 mm 2 mps 764 mmHg 51%
    18:00 +19°C° 0 mm 2 mps 765 mmHg 53%
    19:00 +17°C° 0 mm 3 mps 765 mmHg 55%
    20:00 +17°C° 0 mm 3 mps 765 mmHg 54%
    21:00 +16°C° 0 mm 3 mps 765 mmHg 54%
    22:00 +16°C° 0 mm 3 mps 765 mmHg 53%
    23:00 +14°C° 0 mm 3 mps 765 mmHg 53%

    Day after tomorrow, 25 May, Saturday

    Time Temperature Precipitation Wind Pressure Humidity
    00:00 +14°C° 0 mm 3 mps 765 mmHg 53%
    01:00 +14°C° 0 mm 3 mps 764 mmHg 52%
    02:00 +14°C° 0 mm 3 mps 764 mmHg 54%
    03:00 +14°C° 0 mm 3 mps 764 mmHg 55%
    04:00 +14°C° 0 mm 3 mps 764 mmHg 56%
    05:00 +14°C° 0 mm 4 mps 764 mmHg 58%
    06:00 +14°C° 0 mm 4 mps 764 mmHg 59%
    07:00 +14°C° 0 mm 4 mps 764 mmHg 61%
    08:00 +17°C° 0 mm 3 mps 764 mmHg 57%
    09:00 +19°C° 0 mm 3 mps 764 mmHg 53%
    10:00 +21°C° 0 mm 3 mps 764 mmHg 49%
    11:00 +24°C° 0 mm 3 mps 763 mmHg 46%
    12:00 +25°C° 0 mm 2 mps 763 mmHg 42%
    13:00 +27°C° 0 mm 2 mps 762 mmHg 39%
    14:00 +26°C° 0 mm 2 mps 762 mmHg 43%
    15:00 +25°C° 0 mm 2 mps 762 mmHg 47%
    16:00 +24°C° 0 mm 1 mps 761 mmHg 51%
    17:00 +21°C° 0 mm 2 mps 762 mmHg 56%
    18:00 +20°C° 0 mm 2 mps 762 mmHg 60%
    19:00 +18°C° 0 mm 3 mps 762 mmHg 65%
    20:00 +18°C° 0 mm 3 mps 762 mmHg 64%
    21:00 +17°C° 0 mm 3 mps 762 mmHg 63%
    22:00 +17°C° 0 mm 3 mps 762 mmHg 62%
    23:00 +17°C° 0 mm 3 mps 762 mmHg 63%

    26 May, Sunday

    Time Temperature Precipitation Wind Pressure Humidity
    00:00 +16°C° 0 mm 3 mps 761 mmHg 64%
    01:00 +14°C° 0 mm 3 mps 761 mmHg 65%
    02:00 +15°C° 0 mm 4 mps 761 mmHg 64%
    03:00 +15°C° 0 mm 4 mps 760 mmHg 62%
    04:00 +15°C° 0 mm 4 mps 760 mmHg 60%
    05:00 +15°C° 0 mm 5 mps 760 mmHg 61%
    06:00 +14°C° 0 mm 5 mps 760 mmHg 61%
    07:00 +14°C° 0 mm 5 mps 760 mmHg 61%
    08:00 +16°C° 0 mm 5 mps 760 mmHg 55%
    09:00 +19°C° 0 mm 5 mps 760 mmHg 49%
    10:00 +21°C° 0 mm 5 mps 760 mmHg 43%
    11:00 +22°C° 0 mm 5 mps 760 mmHg 40%
    12:00 +23°C° 0 mm 5 mps 759 mmHg 37%
    13:00 +25°C° 0 mm 5 mps 759 mmHg 34%
    14:00 +25°C° 0 mm 4 mps 758 mmHg 39%
    15:00 +23°C° 0 mm 4 mps 758 mmHg 44%
    16:00 +22°C° 0 mm 3 mps 758 mmHg 49%
    17:00 +20°C° 0 mm 4 mps 759 mmHg 53%
    18:00 +19°C° 0 mm 5 mps 759 mmHg 56%
    19:00 +16°C° 0 mm 6 mps 760 mmHg 59%
    20:00 +15°C° 0 mm 6 mps 760 mmHg 60%
    21:00 +14°C° 0 mm 6 mps 761 mmHg 61%
    22:00 +14°C° 0 mm 6 mps 761 mmHg 61%
    23:00 +13°C° 0 mm 6 mps 761 mmHg 60%

    27 May, Monday

    Time Temperature Precipitation Wind Pressure Humidity
    00:00 +13°C° 0 mm 6 mps 761 mmHg 60%
    01:00 +11°C° 0 mm 6 mps 761 mmHg 59%
    02:00 +11°C° 0 mm 6 mps 761 mmHg 59%
    03:00 +10°C° 0 mm 5 mps 761 mmHg 60%
    04:00 +10°C° 0 mm 5 mps 761 mmHg 60%
    05:00 +10°C° 0 mm 5 mps 761 mmHg 61%
    06:00 +10°C° 0 mm 5 mps 762 mmHg 63%
    07:00 +9°C° 0 mm 5 mps 762 mmHg 64%
    08:00 +12°C° 0 mm 5 mps 762 mmHg 59%
    09:00 +14°C° 0 mm 5 mps 762 mmHg 55%
    10:00 +15°C° 0 mm 5 mps 762 mmHg 51%
    11:00 +17°C° 0 mm 5 mps 762 mmHg 47%
    12:00 +19°C° 0 mm 5 mps 761 mmHg 44%
    13:00 +20°C° 0 mm 5 mps 760 mmHg 40%
    14:00 +20°C° 0 mm 4 mps 760 mmHg 42%
    15:00 +19°C° 0 mm 4 mps 760 mmHg 44%
    16:00 +19°C° 0 mm 3 mps 760 mmHg 46%
    17:00 +18°C° 0 mm 4 mps 760 mmHg 48%
    18:00 +15°C° 0 mm 4 mps 761 mmHg 51%
    19:00 +14°C° 0 mm 5 mps 761 mmHg 54%
    20:00 +13°C° 0 mm 5 mps 761 mmHg 56%
    21:00 +12°C° 0 mm 5 mps 761 mmHg 59%
    22:00 +10°C° 0 mm 5 mps 761 mmHg 61%
    23:00 +10°C° 0 mm 5 mps 761 mmHg 63%

    28 May, Tuesday

    Time Temperature Precipitation Wind Pressure Humidity
    00:00 +10°C° 0 mm 5 mps 761 mmHg 64%
    01:00 +10°C° 0 mm 5 mps 761 mmHg 65%
    02:00 +10°C° 0 mm 5 mps 761 mmHg 66%
    03:00 +10°C° 0 mm 5 mps 761 mmHg 66%
    04:00 +10°C° 0 mm 5 mps 761 mmHg 67%
    05:00 +10°C° 0 mm 6 mps 761 mmHg 67%
    06:00 +10°C° 0 mm 6 mps 761 mmHg 67%
    07:00 +10°C° 0 mm 6 mps 761 mmHg 68%
    08:00 +12°C° 0 mm 7 mps 761 mmHg 62%
    09:00 +14°C° 0 mm 7 mps 760 mmHg 57%
    10:00 +16°C° 0 mm 7 mps 760 mmHg 51%
    11:00 +17°C° 0 mm 7 mps 759 mmHg 47%
    12:00 +20°C° 0 mm 7 mps 759 mmHg 43%
    13:00 +21°C° 0 mm 7 mps 758 mmHg 39%
    14:00 +20°C° 0 mm 6 mps 758 mmHg 41%
    15:00 +20°C° 0 mm 6 mps 758 mmHg 43%
    16:00 +19°C° 0 mm 5 mps 757 mmHg 45%
    17:00 +17°C° 0 mm 6 mps 758 mmHg 48%
    18:00 +16°C° 0 mm 6 mps 758 mmHg 50%
    19:00 +14°C° 0 mm 6 mps 759 mmHg 53%
    20:00 +14°C° 0 mm 6 mps 759 mmHg 54%
    21:00 +14°C° 0 mm 7 mps 758 mmHg 55%
    22:00 +14°C° 0 mm 7 mps 758 mmHg 56%
    23:00 +14°C° 0 mm 7 mps 758 mmHg 56%
    Show more